| time (UTC) | temp F | wind direction | speed MPH | gust MPH | rain 1hr in | rain 24hr in | rain mn in | humidity % | barometer mb |
| 20260902050104 | 63 | 178 | 2.0 | 6.0 | 0.00 | 0.00 | 0.00 | 73 | 1021.9 |
| 20260902044557 | 64 | 178 | 2.0 | 6.0 | 0.00 | 0.00 | 0.00 | 71 | 1021.8 |
| 20260902043056 | 64 | 178 | 1.0 | 8.0 | 0.00 | 0.00 | 0.00 | 69 | 1021.7 |
| 20260902041557 | 64 | 178 | 0.0 | 6.0 | 0.00 | 0.00 | 0.00 | 68 | 1021.6 |
| 20260902040056 | 65 | 178 | 1.0 | 6.0 | 0.00 | 0.00 | 0.00 | 67 | 1021.4 |
| 20260902034555 | 65 | 178 | 2.0 | 8.0 | 0.00 | 0.00 | 0.00 | 65 | 1021.3 |
| 20260902033055 | 66 | 178 | 1.0 | 7.0 | 0.00 | 0.00 | 0.00 | 64 | 1021.0 |
| 20260902031605 | 67 | 178 | 1.0 | 6.0 | 0.00 | 0.00 | 0.00 | 63 | 1020.8 |
| 20260902030054 | 67 | 178 | 1.0 | 8.0 | 0.00 | 0.00 | 0.00 | 61 | 1020.7 |
| 20260902024558 | 68 | 178 | 2.0 | 6.0 | 0.00 | 0.00 | 0.00 | 59 | 1020.6 |
| 20260902023055 | 69 | 178 | 1.0 | 9.0 | 0.00 | 0.00 | 0.00 | 57 | 1020.3 |
| 20260902021601 | 69 | 176 | 1.0 | 7.0 | 0.00 | 0.00 | 0.00 | 55 | 1020.3 |
| 20260902020107 | 70 | 176 | 1.0 | 6.0 | 0.00 | 0.00 | 0.00 | 54 | 1020.1 |
| 20260902014552 | 70 | 176 | 1.0 | 4.0 | 0.00 | 0.00 | 0.00 | 52 | 1020.1 |
| 20260902013051 | 71 | 176 | 1.0 | 6.0 | 0.00 | 0.00 | 0.00 | 51 | 1019.9 |
| 20260902011551 | 72 | 176 | 2.0 | 7.0 | 0.00 | 0.00 | 0.00 | 48 | 1019.9 |
| 20260902010050 | 73 | 176 | 1.0 | 9.0 | 0.00 | 0.00 | 0.00 | 47 | 1019.8 |
| 20260902004550 | 73 | 175 | 0.0 | 11.0 | 0.00 | 0.00 | 0.00 | 47 | 1019.7 |
| 20260902003049 | 74 | 175 | 1.0 | 9.0 | 0.00 | 0.00 | 0.00 | 47 | 1019.7 |
| 20260902001553 | 75 | 176 | 3.0 | 8.0 | 0.00 | 0.00 | 0.00 | 45 | 1019.8 |
| 20260902000048 | 76 | 175 | 0.0 | 7.0 | 0.00 | 0.00 | 0.00 | 44 | 1019.8 |
| 20260901234551 | 76 | 171 | 2.0 | 8.0 | 0.00 | 0.00 | 0.00 | 42 | 1019.9 |
| 20260901233049 | 76 | 167 | 2.0 | 8.0 | 0.00 | 0.00 | 0.00 | 43 | 1019.9 |
| 20260901231547 | 76 | 165 | 3.0 | 8.0 | 0.00 | 0.00 | 0.00 | 43 | 1020.0 |
| 20260901224543 | 76 | 162 | 0.0 | 7.0 | 0.00 | 0.00 | 0.00 | 44 | 1020.1 |
| 20260901223051 | 76 | 162 | 3.0 | 7.0 | 0.00 | 0.00 | 0.00 | 43 | 1020.3 |
| 20260901221541 | 75 | 162 | 0.0 | 10.0 | 0.00 | 0.00 | 0.00 | 44 | 1020.5 |
| 20260901220058 | 75 | 159 | 3.0 | 9.0 | 0.00 | 0.00 | 0.00 | 44 | 1020.6 |
| 20260901214539 | 75 | 160 | 1.0 | 7.0 | 0.00 | 0.00 | 0.00 | 44 | 1020.7 |
| 20260901213045 | 75 | 161 | 2.0 | 9.0 | 0.00 | 0.00 | 0.00 | 44 | 1020.8 |
| 20260901211537 | 74 | 165 | 1.0 | 9.0 | 0.00 | 0.00 | 0.00 | 46 | 1020.8 |
| 20260901210037 | 74 | 165 | 2.0 | 7.0 | 0.00 | 0.00 | 0.00 | 47 | 1020.9 |
| 20260901204539 | 74 | 164 | 2.0 | 8.0 | 0.00 | 0.00 | 0.00 | 46 | 1021.1 |
| 20260901203036 | 73 | 164 | 0.0 | 7.0 | 0.00 | 0.00 | 0.00 | 50 | 1021.2 |
| 20260901201529 | 72 | 164 | 1.0 | 7.0 | 0.00 | 0.00 | 0.00 | 51 | 1021.4 |
| 20260901200028 | 72 | 164 | 2.0 | 6.0 | 0.00 | 0.00 | 0.00 | 51 | 1021.4 |
| 20260901194528 | 72 | 163 | 2.0 | 8.0 | 0.00 | 0.00 | 0.00 | 51 | 1021.5 |
| 20260901193030 | 72 | 162 | 0.0 | 8.0 | 0.00 | 0.00 | 0.00 | 54 | 1021.6 |
| 20260901191523 | 71 | 165 | 1.0 | 10.0 | 0.00 | 0.00 | 0.00 | 54 | 1021.7 |
| 20260901190022 | 71 | 164 | 2.0 | 9.0 | 0.00 | 0.00 | 0.00 | 54 | 1021.7 |
| 20260901184536 | 70 | 166 | 0.0 | 9.0 | 0.00 | 0.00 | 0.00 | 55 | 1021.8 |
| 20260901183020 | 70 | 165 | 0.0 | 7.0 | 0.00 | 0.00 | 0.00 | 56 | 1021.8 |
| 20260901181530 | 70 | 166 | 0.0 | 7.0 | 0.00 | 0.00 | 0.00 | 57 | 1021.9 |
| 20260901180014 | 69 | 166 | 0.0 | 6.0 | 0.00 | 0.00 | 0.00 | 59 | 1021.9 |
| 20260901174531 | 68 | 166 | 1.0 | 6.0 | 0.00 | 0.00 | 0.00 | 61 | 1021.7 |
| 20260901173006 | 66 | 166 | 0.0 | 8.0 | 0.00 | 0.00 | 0.00 | 63 | 1021.7 |
| 20260901171503 | 65 | 166 | 0.0 | 3.0 | 0.00 | 0.00 | 0.00 | 65 | 1021.6 |
| 20260901170002 | 65 | 167 | 0.0 | 5.0 | 0.00 | 0.00 | 0.00 | 67 | 1021.6 |
| 20260901164605 | 65 | 166 | 0.0 | 5.0 | 0.00 | 0.00 | 0.00 | 68 | 1021.5 |
| 20260901163056 | 65 | 167 | 2.0 | 7.0 | 0.00 | 0.00 | 0.00 | 72 | 1021.4 |
| 20260901161609 | 64 | 166 | 2.0 | 6.0 | 0.00 | 0.00 | 0.00 | 75 | 1021.4 |
| 20260901160106 | 62 | 166 | 0.0 | 7.0 | 0.00 | 0.00 | 0.00 | 77 | 1021.3 |
| 20260901154542 | 62 | 166 | 0.0 | 7.0 | 0.00 | 0.00 | 0.00 | 78 | 1021.1 |
| 20260901153040 | 61 | 166 | 0.0 | 8.0 | 0.00 | 0.00 | 0.00 | 80 | 1021.0 |
| 20260901151537 | 61 | 166 | 0.0 | 3.0 | 0.00 | 0.00 | 0.00 | 79 | 1020.7 |
| 20260901150033 | 60 | 166 | 1.0 | 6.0 | 0.00 | 0.00 | 0.00 | 81 | 1020.5 |
| 20260901144530 | 59 | 166 | 0.0 | 5.0 | 0.00 | 0.00 | 0.00 | 83 | 1020.4 |
| 20260901143026 | 58 | 167 | 0.0 | 0.0 | 0.00 | 0.00 | 0.00 | 86 | 1020.2 |
| 20260901141523 | 57 | 167 | 0.0 | 0.0 | 0.00 | 0.00 | 0.00 | 87 | 1020.0 |
| 20260901140020 | 57 | 167 | 0.0 | 0.0 | 0.00 | 0.00 | 0.00 | 88 | 1019.7 |
| 20260901134522 | 57 | 167 | 0.0 | 0.0 | 0.00 | 0.00 | 0.00 | 87 | 1019.4 |
| 20260901133014 | 57 | 167 | 0.0 | 0.0 | 0.00 | 0.00 | 0.00 | 87 | 1019.3 |
| 20260901131515 | 58 | 167 | 0.0 | 0.0 | 0.00 | 0.00 | 0.00 | 86 | 1019.3 |
| 20260901130010 | 58 | 167 | 0.0 | 0.0 | 0.00 | 0.00 | 0.00 | 85 | 1019.1 |
| 20260901124517 | 58 | 167 | 0.0 | 3.0 | 0.00 | 0.00 | 0.00 | 85 | 1018.9 |
| 20260901123019 | 58 | 167 | 0.0 | 2.0 | 0.00 | 0.00 | 0.00 | 85 | 1018.8 |
| 20260901121507 | 58 | 167 | 0.0 | 4.0 | 0.00 | 0.00 | 0.00 | 84 | 1018.8 |
| 20260901120006 | 58 | 167 | 0.0 | 6.0 | 0.00 | 0.00 | 0.00 | 83 | 1018.8 |
| 20260901114505 | 58 | 167 | 0.0 | 4.0 | 0.00 | 0.00 | 0.00 | 83 | 1018.8 |
| 20260901113002 | 59 | 167 | 0.0 | 8.0 | 0.00 | 0.00 | 0.00 | 82 | 1018.5 |
| 20260901111502 | 59 | 167 | 0.0 | 8.0 | 0.00 | 0.00 | 0.00 | 82 | 1018.5 |
| 20260901110113 | 59 | 167 | 0.0 | 8.0 | 0.00 | 0.00 | 0.00 | 81 | 1018.5 |
| 20260901104559 | 59 | 167 | 0.0 | 5.0 | 0.00 | 0.00 | 0.00 | 80 | 1018.5 |
| 20260901103100 | 59 | 167 | 2.0 | 6.0 | 0.00 | 0.00 | 0.00 | 80 | 1018.3 |
| 20260901101558 | 59 | 167 | 0.0 | 7.0 | 0.00 | 0.00 | 0.00 | 80 | 1018.2 |
| 20260901100058 | 59 | 167 | 1.0 | 5.0 | 0.00 | 0.00 | 0.00 | 80 | 1018.3 |
| 20260901094558 | 59 | 167 | 0.0 | 5.0 | 0.00 | 0.00 | 0.00 | 80 | 1018.3 |
| 20260901093056 | 59 | 167 | 1.0 | 8.0 | 0.00 | 0.00 | 0.00 | 79 | 1018.3 |
| 20260901091558 | 59 | 167 | 0.0 | 5.0 | 0.00 | 0.00 | 0.00 | 79 | 1018.3 |
| 20260901090056 | 59 | 167 | 0.0 | 5.0 | 0.00 | 0.00 | 0.00 | 79 | 1018.4 |
| 20260901084556 | 59 | 167 | 0.0 | 9.0 | 0.00 | 0.00 | 0.00 | 79 | 1018.5 |
| 20260901083053 | 59 | 167 | 0.0 | 5.0 | 0.00 | 0.00 | 0.00 | 78 | 1018.5 |
| 20260901081551 | 60 | 171 | 0.0 | 3.0 | 0.00 | 0.00 | 0.00 | 78 | 1018.4 |
| 20260901080050 | 60 | 171 | 0.0 | 3.0 | 0.00 | 0.00 | 0.00 | 78 | 1018.3 |
| 20260901074549 | 60 | 171 | 0.0 | 5.0 | 0.00 | 0.00 | 0.00 | 78 | 1018.3 |
| 20260901073046 | 61 | 171 | 0.0 | 8.0 | 0.00 | 0.00 | 0.00 | 79 | 1018.1 |
| 20260901071544 | 61 | 174 | 2.0 | 6.0 | 0.00 | 0.00 | 0.00 | 78 | 1018.1 |
| 20260901070041 | 61 | 175 | 0.0 | 7.0 | 0.00 | 0.00 | 0.00 | 77 | 1017.9 |
| 20260901064540 | 61 | 175 | 2.0 | 8.0 | 0.00 | 0.00 | 0.00 | 77 | 1018.0 |
| 20260901063051 | 61 | 181 | 2.0 | 9.0 | 0.00 | 0.00 | 0.00 | 77 | 1017.9 |
| 20260901061550 | 61 | 178 | 2.0 | 8.0 | 0.00 | 0.00 | 0.00 | 77 | 1017.9 |
| 20260901060038 | 61 | 178 | 2.0 | 7.0 | 0.00 | 0.00 | 0.00 | 76 | 1017.9 |
| 20260901054539 | 61 | 186 | 0.0 | 8.0 | 0.00 | 0.00 | 0.00 | 76 | 1017.8 |
| 20260901053037 | 61 | 186 | 1.0 | 9.0 | 0.00 | 0.00 | 0.00 | 75 | 1017.9 |
| 20260901051541 | 61 | 188 | 2.0 | 9.0 | 0.00 | 0.00 | 0.00 | 75 | 1017.8 |